Amsterdam, Netherlands

1:21 AM CET on December 15, 2019 (GMT +0100)
Schiphol

Weather History for EHAM - October, 2019

Change the Weather History Date:

Wednesday, October 16, 2019

  Actual Average Record
Temperature  
Mean Temperature 54 °F -  
Max Temperature 59 °F 52 °F 74 °F (2017)
Min Temperature 50 °F 42 °F 38 °F (2013)
Degree Days  
Heating Degree Days 10    
Growing Degree Days 4 (Base 50)    
Moisture  
Dew Point 54 °F    
Average Humidity 92    
Maximum Humidity 100    
Minimum Humidity 76    
Precipitation  
Precipitation 0.12 in - - ()
Sea Level Pressure  
Sea Level Pressure 29.71 in    
Wind  
Wind Speed 10 mph ()    
Max Wind Speed 20 mph    
Max Gust Speed -    
Visibility 6.3 miles    
Events Rain    
Averages and records for this station are not official NWS values.
T = Trace of Precipitation, MM = Missing Value Source: Averaged Metar Reports

Daily Weather History Graph

Daily Weather History Graph

Search for Another Location

Airport or City:

Astronomy

Oct. 16, 2019 Rise Set
Actual Time 8:07 AM CEST 6:45 PM CEST
Civil Twilight 7:32 AM CEST 7:19 PM CEST
Nautical Twilight 6:53 AM CEST 7:58 PM CEST
Astronomical Twilight 6:13 AM CEST 8:38 PM CEST
Moon 8:13 PM CEST (10/16) 10:34 AM CEST (10/16)
Length of Visible Light 11h 46m
Length of Day
10h 37m
Waning Gibbous, 94% of the Moon is Illuminated
Oct 16
Waning Gibbous
Oct 21
Last Quarter
Oct 28
New
Nov 4
First Quarter
Nov 12
Full

Hourly Weather History & Observations

Time (CEST) Temp. Dew Point Humidity Pressure Visibility Wind Dir Wind Speed Gust Speed Precip Events Conditions
12:25 AM 55.4 °F 53.6 °F 94% 29.74 in 6.2 mi SSW 4.6 mph - N/A   Mostly Cloudy
12:55 AM 55.4 °F 53.6 °F 94% 29.74 in 6.2 mi South 8.1 mph - N/A   Partly Cloudy
1:00 AM 54 °F 53 °F 93% 29.75 in 14 mi SSW 8.9 mph - -   Partly Cloudy
1:25 AM 53.6 °F 51.8 °F 94% 29.74 in 6.2 mi SSW 8.1 mph - N/A   Partly Cloudy
1:55 AM 53.6 °F 51.8 °F 94% 29.74 in 6.2 mi SSW 10.4 mph - N/A   Partly Cloudy
2:25 AM 53.6 °F 51.8 °F 94% 29.74 in 6.2 mi SSW 8.1 mph - N/A   Partly Cloudy
2:55 AM 53.6 °F 51.8 °F 94% 29.74 in 6.2 mi South 6.9 mph - N/A   Partly Cloudy
3:00 AM 54 °F 51 °F 88% 29.76 in 14 mi South 6.7 mph - -   Partly Cloudy
3:25 AM 53.6 °F 51.8 °F 94% 29.74 in 6.2 mi South 6.9 mph - N/A   Partly Cloudy
3:55 AM 53.6 °F 51.8 °F 94% 29.74 in 6.2 mi South 8.1 mph - N/A   Partly Cloudy
4:00 AM 54 °F 51 °F 88% 29.75 in 9 mi South 8.9 mph - -   Partly Cloudy
4:25 AM 53.6 °F 51.8 °F 94% 29.74 in 6.2 mi South 8.1 mph - N/A   Partly Cloudy
4:55 AM 53.6 °F 51.8 °F 94% 29.74 in 6.2 mi South 9.2 mph - N/A   Partly Cloudy
5:00 AM 53 °F 51 °F 90% 29.75 in 9 mi South 11.2 mph - -   Partly Cloudy
5:25 AM 51.8 °F 50.0 °F 94% 29.74 in - South 10.4 mph - N/A   Clear
5:55 AM 51.8 °F 50.0 °F 94% 29.74 in 6.2 mi South 10.4 mph - N/A   Partly Cloudy
6:25 AM 51.8 °F 50.0 °F 94% 29.74 in 6.2 mi South 10.4 mph - N/A   Partly Cloudy
6:55 AM 51.8 °F 50.0 °F 94% 29.74 in 6.2 mi South 10.4 mph - N/A   Partly Cloudy
7:00 AM 51 °F 49 °F 92% 29.75 in 8 mi South 11.2 mph - -   Partly Cloudy
7:25 AM 51.8 °F 50.0 °F 94% 29.74 in 6.2 mi South 9.2 mph - N/A   Mostly Cloudy
7:55 AM 51.8 °F 50.0 °F 94% 29.74 in 5.6 mi South 11.5 mph - N/A   Mostly Cloudy
8:25 AM 53.6 °F 51.8 °F 94% 29.74 in 5.6 mi South 11.5 mph - N/A   Mostly Cloudy
8:55 AM 51.8 °F 50.0 °F 94% 29.74 in 6.2 mi South 9.2 mph - N/A   Partly Cloudy
9:00 AM 52 °F 50 °F 92% 29.75 in 7 mi South 8.9 mph - -   Partly Cloudy
9:25 AM 51.8 °F 50.0 °F 94% 29.74 in 6.2 mi SSE 9.2 mph - N/A   Partly Cloudy
9:55 AM 53.6 °F 50.0 °F 88% 29.74 in 6.2 mi South 10.4 mph - N/A   Partly Cloudy
10:00 AM 53 °F 51 °F 89% 29.75 in 10 mi SSE 11.2 mph - -   Partly Cloudy
10:25 AM 53.6 °F 51.8 °F 94% 29.74 in 6.2 mi South 13.8 mph - N/A   Scattered Clouds
10:55 AM 55.4 °F 51.8 °F 88% 29.74 in 6.2 mi South 16.1 mph - N/A   Scattered Clouds
11:00 AM 55 °F 52 °F 84% 29.74 in 17 mi South 17.9 mph - -   Partly Cloudy
11:25 AM 55.4 °F 51.8 °F 88% 29.74 in 6.2 mi South 18.4 mph - N/A   Scattered Clouds
11:55 AM 57.2 °F 51.8 °F 82% 29.71 in 6.2 mi South 16.1 mph - N/A   Mostly Cloudy
12:00 PM 56 °F 52 °F 80% 29.73 in 19 mi South 15.7 mph - -   Partly Cloudy
12:25 PM 57.2 °F 51.8 °F 82% 29.71 in 6.2 mi South 16.1 mph - N/A   Mostly Cloudy
12:55 PM 57.2 °F 51.8 °F 82% 29.71 in 6.2 mi South 17.3 mph - N/A   Light Drizzle
1:00 PM 58 °F 53 °F 76% 29.72 in 22 mi South 17.9 mph - -   Partly Cloudy
1:25 PM 57.2 °F 51.8 °F 82% 29.71 in 6.2 mi South 19.6 mph - N/A   Mostly Cloudy
1:55 PM 57.2 °F 53.6 °F 88% 29.68 in 6.2 mi South 16.1 mph - N/A   Light Drizzle
2:25 PM 57.2 °F 53.6 °F 88% 29.68 in 6.2 mi South 16.1 mph - N/A   Mostly Cloudy
2:55 PM 57.2 °F 55.4 °F 94% 29.68 in 4.3 mi South 15.0 mph - N/A   Light Drizzle
3:00 PM 57 °F 55 °F 91% 29.69 in 5 mi South 15.7 mph - -   Mist
3:25 PM 57.2 °F 55.4 °F 94% 29.68 in 5.6 mi South 15.0 mph - N/A   Light Drizzle
3:55 PM 57.2 °F 55.4 °F 94% 29.68 in 2.8 mi South 13.8 mph - N/A   Light Drizzle
4:00 PM 57 °F 56 °F 94% 29.69 in 4 mi South 13.4 mph - - Rain Heavy Drizzle
4:25 PM 57.2 °F 55.4 °F 94% 29.68 in 2.8 mi South 13.8 mph - N/A   Light Drizzle
4:55 PM 57.2 °F 57.2 °F 100% 29.65 in 1.9 mi South 13.8 mph - N/A Rain Rain
5:00 PM 57 °F 56 °F 97% 29.68 in 3 mi South 13.4 mph - - Rain Rain
5:25 PM 57.2 °F 57.2 °F 100% 29.65 in 2.5 mi South 12.7 mph - N/A Rain Rain
5:55 PM 57.2 °F 57.2 °F 100% 29.65 in 2.8 mi South 13.8 mph - N/A Rain Rain
6:25 PM 57.2 °F 57.2 °F 100% 29.65 in 3.1 mi South 15.0 mph - N/A Rain Rain
6:55 PM 59.0 °F 57.2 °F 94% 29.65 in 5.0 mi South 15.0 mph - N/A   Light Drizzle
7:25 PM 57.2 °F 57.2 °F 100% 29.68 in 3.7 mi South 15.0 mph - N/A   Light Drizzle
7:55 PM 59.0 °F 57.2 °F 94% 29.68 in 6.2 mi South 13.8 mph - N/A   Mostly Cloudy
8:00 PM 58 °F 57 °F 94% 29.68 in 6 mi South 13.4 mph - - Rain Rain
8:25 PM 59.0 °F 57.2 °F 94% 29.68 in 3.7 mi South 13.8 mph - N/A Rain Light Rain
8:55 PM 59.0 °F 57.2 °F 94% 29.68 in 3.7 mi South 13.8 mph - N/A Rain Light Rain
9:00 PM 58 °F 57 °F 94% 29.68 in 6 mi South 13.4 mph - - Rain Heavy Drizzle
9:25 PM 59.0 °F 57.2 °F 94% 29.65 in 5.6 mi South 13.8 mph - N/A Rain Light Rain
9:55 PM 59.0 °F 57.2 °F 94% 29.65 in 6.2 mi South 15.0 mph - N/A Rain Light Rain
10:00 PM 58 °F 57 °F 94% 29.68 in 8 mi South 13.4 mph - - Rain Heavy Rain
10:25 PM 59.0 °F 57.2 °F 94% 29.68 in 6.2 mi South 13.8 mph - N/A Rain Light Rain
10:55 PM 59.0 °F 57.2 °F 94% 29.68 in 5.6 mi South 13.8 mph - N/A Rain Light Rain
11:00 PM 58 °F 57 °F 94% 29.68 in 7 mi South 13.4 mph - - Rain Heavy Drizzle
11:25 PM 59.0 °F 57.2 °F 94% 29.68 in 3.7 mi South 13.8 mph - N/A Rain Rain
11:55 PM 57.2 °F 57.2 °F 100% 29.68 in 2.8 mi South 13.8 mph - N/A   Light Drizzle